| time (UTC) | temp C | wind direction | speed KPH | gust KPH | rain 1hr cm | rain 24hr cm | rain mn cm | humidity % | barometer mb |
| 20260502224540 | 18 | 183 | 0.0 | 0.0 | 0.00 | 0.05 | 0.05 | 44 | 1034.5 |
| 20260502224037 | 18 | 180 | 3.2 | 3.2 | 0.00 | 0.05 | 0.05 | 45 | 1034.6 |
| 20260502223535 | 18 | 344 | 0.0 | 0.0 | 0.00 | 0.05 | 0.05 | 47 | 1034.7 |
| 20260502223033 | 18 | 22 | 0.0 | 0.0 | 0.00 | 0.05 | 0.05 | 47 | 1034.5 |
| 20260502222530 | 19 | 125 | 1.6 | 3.2 | 0.00 | 0.05 | 0.05 | 43 | 1034.7 |
| 20260502222026 | 19 | 169 | 3.2 | 4.8 | 0.00 | 0.05 | 0.05 | 40 | 1034.5 |
| 20260502221522 | 19 | 53 | 0.0 | 0.0 | 0.00 | 0.05 | 0.05 | 45 | 1034.6 |
| 20260502221020 | 19 | 139 | 1.6 | 3.2 | 0.00 | 0.05 | 0.05 | 49 | 1034.5 |
| 20260502220515 | 20 | 29 | 3.2 | 3.2 | 0.00 | 0.05 | 0.05 | 42 | 1034.7 |
| 20260502220012 | 21 | 11 | 0.0 | 0.0 | 0.00 | 0.05 | 0.05 | 42 | 1034.5 |
| 20260502215509 | 21 | 173 | 3.2 | 3.2 | 0.00 | 0.05 | 0.05 | 38 | 1034.4 |
| 20260502215006 | 20 | 168 | 1.6 | 3.2 | 0.00 | 0.05 | 0.05 | 40 | 1034.6 |
| 20260502214503 | 20 | 162 | 1.6 | 3.2 | 0.00 | 0.05 | 0.05 | 42 | 1034.4 |
| 20260502214000 | 20 | 92 | 1.6 | 1.6 | 0.00 | 0.05 | 0.05 | 44 | 1034.4 |
| 20260502213456 | 20 | 204 | 0.0 | 0.0 | 0.00 | 0.05 | 0.05 | 43 | 1034.3 |
| 20260502212955 | 20 | 158 | 0.0 | 3.2 | 0.00 | 0.05 | 0.05 | 40 | 1034.2 |
| 20260502212453 | 20 | 188 | 1.6 | 1.6 | 0.00 | 0.05 | 0.05 | 37 | 1034.1 |
| 20260502211950 | 20 | 169 | 0.0 | 1.6 | 0.00 | 0.05 | 0.05 | 40 | 1034.4 |
| 20260502211446 | 20 | 170 | 3.2 | 4.8 | 0.00 | 0.05 | 0.05 | 40 | 1034.5 |
| 20260502210944 | 20 | 154 | 1.6 | 3.2 | 0.00 | 0.05 | 0.05 | 39 | 1034.3 |
| 20260502210440 | 20 | 14 | 0.0 | 0.0 | 0.00 | 0.05 | 0.05 | 43 | 1034.3 |
| 20260502205938 | 20 | 109 | 1.6 | 3.2 | 0.00 | 0.05 | 0.05 | 43 | 1034.3 |
| 20260502205434 | 20 | 162 | 1.6 | 3.2 | 0.00 | 0.05 | 0.05 | 40 | 1034.4 |
| 20260502204931 | 20 | 55 | 0.0 | 0.0 | 0.00 | 0.05 | 0.05 | 47 | 1034.4 |
| 20260502204428 | 20 | 172 | 1.6 | 1.6 | 0.00 | 0.05 | 0.05 | 41 | 1034.6 |
| 20260502203926 | 20 | 86 | 1.6 | 1.6 | 0.00 | 0.05 | 0.05 | 38 | 1034.5 |
| 20260502203423 | 20 | 55 | 0.0 | 1.6 | 0.00 | 0.05 | 0.05 | 39 | 1034.5 |
| 20260502202919 | 21 | 161 | 3.2 | 3.2 | 0.00 | 0.05 | 0.05 | 38 | 1034.4 |
| 20260502202416 | 20 | 106 | 0.0 | 0.0 | 0.00 | 0.05 | 0.05 | 40 | 1034.7 |
| 20260502201914 | 20 | 68 | 1.6 | 1.6 | 0.00 | 0.05 | 0.05 | 38 | 1034.5 |
| 20260502201409 | 20 | 194 | 4.8 | 4.8 | 0.00 | 0.05 | 0.05 | 35 | 1034.6 |
| 20260502200907 | 20 | 31 | 0.0 | 0.0 | 0.00 | 0.05 | 0.05 | 40 | 1034.6 |
| 20260502200402 | 20 | 72 | 0.0 | 0.0 | 0.00 | 0.05 | 0.05 | 40 | 1034.6 |
| 20260502195901 | 20 | 339 | 0.0 | 0.0 | 0.00 | 0.05 | 0.05 | 38 | 1034.8 |
| 20260502195357 | 20 | 174 | 4.8 | 6.4 | 0.00 | 0.05 | 0.05 | 36 | 1034.7 |
| 20260502194853 | 21 | 181 | 3.2 | 4.8 | 0.00 | 0.05 | 0.05 | 38 | 1034.7 |
| 20260502194350 | 20 | 62 | 0.0 | 0.0 | 0.00 | 0.05 | 0.05 | 39 | 1034.4 |
| 20260502193846 | 21 | 334 | 3.2 | 3.2 | 0.00 | 0.05 | 0.05 | 43 | 1034.5 |
| 20260502193344 | 21 | 54 | 3.2 | 3.2 | 0.00 | 0.05 | 0.05 | 40 | 1034.3 |
| 20260502192839 | 21 | 8 | 0.0 | 0.0 | 0.00 | 0.05 | 0.05 | 45 | 1034.6 |
| 20260502192336 | 21 | 342 | 0.0 | 0.0 | 0.00 | 0.05 | 0.05 | 42 | 1034.5 |
| 20260502191833 | 21 | 9 | 0.0 | 0.0 | 0.00 | 0.05 | 0.05 | 43 | 1034.5 |
| 20260502191331 | 21 | 349 | 0.0 | 0.0 | 0.00 | 0.05 | 0.05 | 41 | 1034.5 |
| 20260502190828 | 21 | 63 | 0.0 | 0.0 | 0.00 | 0.05 | 0.05 | 38 | 1034.6 |
| 20260502190326 | 21 | 13 | 1.6 | 1.6 | 0.00 | 0.05 | 0.05 | 45 | 1034.6 |
| 20260502185821 | 21 | 357 | 3.2 | 4.8 | 0.00 | 0.05 | 0.05 | 35 | 1034.6 |
| 20260502185317 | 20 | 22 | 1.6 | 3.2 | 0.00 | 0.05 | 0.05 | 46 | 1035.1 |
| 20260502184814 | 20 | 171 | 4.8 | 4.8 | 0.00 | 0.05 | 0.05 | 39 | 1034.7 |
| 20260502184310 | 21 | 182 | 1.6 | 1.6 | 0.00 | 0.05 | 0.05 | 41 | 1034.7 |
| 20260502183807 | 21 | 26 | 0.0 | 0.0 | 0.00 | 0.05 | 0.05 | 44 | 1034.8 |
| 20260502183303 | 21 | 346 | 0.0 | 1.6 | 0.00 | 0.05 | 0.05 | 36 | 1034.8 |
| 20260502182758 | 21 | 169 | 0.0 | 1.6 | 0.00 | 0.05 | 0.05 | 38 | 1035.3 |
| 20260502182253 | 20 | 29 | 3.2 | 3.2 | 0.00 | 0.05 | 0.05 | 36 | 1035.3 |
| 20260502181749 | 20 | 344 | 1.6 | 1.6 | 0.00 | 0.05 | 0.05 | 46 | 1035.2 |
| 20260502181244 | 20 | 105 | 3.2 | 4.8 | 0.00 | 0.05 | 0.05 | 42 | 1035.2 |
| 20260502180741 | 20 | 34 | 1.6 | 1.6 | 0.00 | 0.05 | 0.05 | 42 | 1035.4 |
| 20260502180238 | 20 | 71 | 1.6 | 3.2 | 0.00 | 0.05 | 0.05 | 43 | 1035.3 |
| 20260502170156 | 18 | 145 | 1.6 | 3.2 | 0.00 | 0.05 | 0.05 | 50 | 1035.6 |
| 20260502164143 | 17 | 349 | 0.0 | 0.0 | 0.00 | 0.05 | 0.05 | 59 | 1035.6 |
| 20260502163638 | 17 | 338 | 0.0 | 1.6 | 0.00 | 0.05 | 0.05 | 62 | 1035.9 |
| 20260502163135 | 16 | 14 | 0.0 | 0.0 | 0.00 | 0.05 | 0.05 | 61 | 1035.6 |
| 20260502162632 | 16 | 329 | 0.0 | 0.0 | 0.00 | 0.05 | 0.05 | 65 | 1035.7 |
| 20260502162129 | 16 | 313 | 0.0 | 0.0 | 0.00 | 0.05 | 0.05 | 63 | 1035.7 |
| 20260502161627 | 16 | 13 | 0.0 | 0.0 | 0.00 | 0.05 | 0.05 | 56 | 1035.8 |
| 20260502161124 | 16 | 154 | 0.0 | 1.6 | 0.00 | 0.05 | 0.05 | 59 | 1035.9 |
| 20260502160621 | 16 | 129 | 1.6 | 1.6 | 0.00 | 0.05 | 0.05 | 60 | 1035.6 |
| 20260502160120 | 16 | 178 | 0.0 | 1.6 | 0.00 | 0.05 | 0.05 | 69 | 1035.6 |
| 20260502152034 | 15 | 65 | 1.6 | 1.6 | 0.00 | 0.05 | 0.05 | 61 | 1035.4 |
| 20260502151531 | 15 | 22 | 0.0 | 0.0 | 0.00 | 0.05 | 0.05 | 78 | 1035.4 |
| 20260502151028 | 14 | 0 | 0.0 | 0.0 | 0.00 | 0.05 | 0.05 | 78 | 1035.3 |
| 20260502150526 | 14 | 1 | 0.0 | 0.0 | 0.00 | 0.05 | 0.05 | 77 | 1035.3 |
| 20260502130410 | 11 | 1 | 0.0 | 0.0 | 0.00 | 0.05 | 0.05 | 89 | 1034.1 |
| 20260502123347 | 10 | 355 | 0.0 | 0.0 | 0.00 | 0.05 | 0.05 | 90 | 1033.6 |
| 20260502122845 | 10 | 355 | 0.0 | 0.0 | 0.00 | 0.05 | 0.05 | 91 | 1033.5 |
| 20260502122340 | 10 | 355 | 0.0 | 0.0 | 0.00 | 0.05 | 0.05 | 92 | 1033.7 |
| 20260502121839 | 10 | 349 | 0.0 | 0.0 | 0.00 | 0.05 | 0.05 | 92 | 1033.5 |
| 20260502121336 | 10 | 358 | 0.0 | 0.0 | 0.00 | 0.05 | 0.05 | 91 | 1033.2 |
| 20260502120833 | 10 | 358 | 0.0 | 0.0 | 0.00 | 0.05 | 0.05 | 91 | 1033.5 |
| 20260502120329 | 10 | 356 | 0.0 | 0.0 | 0.00 | 0.05 | 0.05 | 90 | 1033.3 |
| 20260502115827 | 10 | 348 | 0.0 | 0.0 | 0.00 | 0.05 | 0.05 | 90 | 1033.3 |
| 20260502115324 | 10 | 352 | 0.0 | 0.0 | 0.00 | 0.05 | 0.05 | 91 | 1033.4 |
| 20260502114820 | 10 | 353 | 0.0 | 0.0 | 0.00 | 0.05 | 0.05 | 92 | 1032.9 |
| 20260502114317 | 10 | 354 | 0.0 | 0.0 | 0.00 | 0.05 | 0.05 | 94 | 1032.8 |
| 20260502113814 | 10 | 356 | 0.0 | 0.0 | 0.00 | 0.05 | 0.05 | 95 | 1032.9 |
| 20260502113312 | 10 | 356 | 0.0 | 0.0 | 0.00 | 0.05 | 0.05 | 95 | 1033.0 |
| 20260502112810 | 10 | 358 | 0.0 | 0.0 | 0.00 | 0.05 | 0.05 | 96 | 1033.0 |
| 20260502112307 | 9 | 359 | 0.0 | 0.0 | 0.00 | 0.05 | 0.05 | 97 | 1032.7 |
| 20260502111804 | 9 | 2 | 0.0 | 0.0 | 0.00 | 0.05 | 0.05 | 98 | 1033.2 |
| 20260502111302 | 10 | 5 | 0.0 | 0.0 | 0.00 | 0.05 | 0.05 | 98 | 1033.3 |
| 20260502110759 | 10 | 3 | 0.0 | 0.0 | 0.00 | 0.05 | 0.05 | 99 | 1033.1 |
| 20260502110257 | 10 | 7 | 0.0 | 0.0 | 0.00 | 0.05 | 0.05 | 99 | 1032.9 |
| 20260502105754 | 10 | 19 | 0.0 | 0.0 | 0.00 | 0.05 | 0.05 | 99 | 1033.3 |
| 20260502105250 | 10 | 19 | 0.0 | 0.0 | 0.00 | 0.05 | 0.05 | 99 | 1032.6 |
| 20260502104748 | 10 | 19 | 0.0 | 0.0 | 0.00 | 0.05 | 0.05 | 99 | 1032.7 |
| 20260502104246 | 10 | 22 | 0.0 | 0.0 | 0.00 | 0.05 | 0.05 | 99 | 1032.8 |
| 20260502103743 | 10 | 22 | 0.0 | 0.0 | 0.00 | 0.05 | 0.05 | 99 | 1032.4 |
| 20260502103240 | 10 | 45 | 0.0 | 0.0 | 0.00 | 0.05 | 0.05 | 99 | 1032.6 |
| 20260502102738 | 10 | 46 | 0.0 | 0.0 | 0.00 | 0.05 | 0.05 | 99 | 1032.7 |
| 20260502102233 | 10 | 46 | 0.0 | 0.0 | 0.00 | 0.05 | 0.05 | 99 | 1032.9 |
| 20260502101732 | 10 | 46 | 0.0 | 0.0 | 0.00 | 0.05 | 0.05 | 99 | 1032.6 |
| 20260502101230 | 10 | 46 | 0.0 | 0.0 | 0.00 | 0.05 | 0.05 | 99 | 1032.9 |
| 20260502100727 | 10 | 46 | 0.0 | 0.0 | 0.00 | 0.05 | 0.05 | 99 | 1033.2 |
| 20260502100226 | 10 | 46 | 0.0 | 0.0 | 0.00 | 0.05 | 0.05 | 99 | 1033.2 |
| 20260502091200 | 10 | 46 | 0.0 | 0.0 | 0.00 | 0.05 | 0.05 | 99 | 1032.4 |
| 20260502090657 | 10 | 46 | 0.0 | 0.0 | 0.00 | 0.05 | 0.05 | 99 | 1033.0 |
| 20260502090154 | 10 | 46 | 0.0 | 0.0 | 0.00 | 0.05 | 0.05 | 99 | 1033.1 |
| 20260502071049 | 12 | 51 | 0.0 | 0.0 | 0.00 | 0.03 | 0.03 | 99 | 1032.8 |
| 20260502070548 | 13 | 51 | 0.0 | 0.0 | 0.00 | 0.03 | 0.03 | 99 | 1032.9 |
| 20260502070045 | 13 | 51 | 0.0 | 0.0 | 0.00 | 0.03 | 0.03 | 99 | 1033.2 |
| 20260502065544 | 13 | 51 | 0.0 | 0.0 | 0.00 | 0.03 | 0.03 | 99 | 1033.1 |
| 20260502065041 | 13 | 51 | 0.0 | 0.0 | 0.00 | 0.03 | 0.03 | 99 | 1033.6 |
| 20260502064539 | 13 | 51 | 0.0 | 0.0 | 0.00 | 0.03 | 0.03 | 99 | 1033.5 |
| 20260502064036 | 13 | 51 | 0.0 | 0.0 | 0.00 | 0.03 | 0.03 | 99 | 1033.6 |
| 20260502063534 | 13 | 51 | 0.0 | 0.0 | 0.00 | 0.03 | 0.03 | 99 | 1033.7 |
| 20260502063031 | 13 | 50 | 0.0 | 0.0 | 0.00 | 0.03 | 0.03 | 99 | 1033.4 |
| 20260502062528 | 13 | 50 | 0.0 | 0.0 | 0.00 | 0.03 | 0.03 | 99 | 1033.4 |
| 20260502062026 | 13 | 49 | 0.0 | 0.0 | 0.00 | 0.03 | 0.03 | 99 | 1033.2 |
| 20260502061524 | 13 | 50 | 0.0 | 0.0 | 0.00 | 0.03 | 0.03 | 99 | 1033.3 |
| 20260502061021 | 13 | 50 | 0.0 | 0.0 | 0.00 | 0.03 | 0.03 | 99 | 1033.3 |
| 20260502060516 | 13 | 50 | 0.0 | 0.0 | 0.00 | 0.03 | 0.03 | 99 | 1033.3 |
| 20260502060013 | 13 | 49 | 0.0 | 0.0 | 0.00 | 0.03 | 0.03 | 99 | 1033.4 |
| 20260502055510 | 13 | 49 | 0.0 | 0.0 | 0.00 | 0.03 | 0.03 | 99 | 1033.2 |
| 20260502055009 | 13 | 49 | 0.0 | 0.0 | 0.00 | 0.03 | 0.03 | 99 | 1033.3 |
| 20260502054507 | 13 | 50 | 0.0 | 0.0 | 0.00 | 0.03 | 0.03 | 99 | 1033.3 |
| 20260502054004 | 13 | 49 | 0.0 | 0.0 | 0.00 | 0.03 | 0.03 | 99 | 1033.1 |
| 20260502053501 | 13 | 49 | 0.0 | 0.0 | 0.00 | 0.03 | 0.03 | 99 | 1033.0 |
| 20260502052959 | 13 | 49 | 0.0 | 0.0 | 0.13 | 0.03 | 0.03 | 99 | 1033.0 |
| 20260502052457 | 13 | 49 | 0.0 | 0.0 | 0.13 | 0.03 | 0.03 | 99 | 1033.4 |
| 20260502051955 | 13 | 49 | 0.0 | 0.0 | 0.00 | 0.00 | 0.00 | 99 | 1033.0 |
| 20260502051453 | 13 | 49 | 0.0 | 0.0 | 0.00 | 0.00 | 0.00 | 99 | 1033.2 |
| 20260502050950 | 13 | 49 | 0.0 | 0.0 | 0.00 | 0.00 | 0.00 | 99 | 1033.0 |
| 20260502050446 | 13 | 49 | 0.0 | 0.0 | 0.00 | 0.00 | 0.00 | 99 | 1033.3 |
| 20260502045943 | 13 | 49 | 0.0 | 0.0 | 0.00 | 0.08 | 0.08 | 99 | 1033.2 |
| 20260502045440 | 13 | 49 | 0.0 | 0.0 | 0.00 | 0.08 | 0.08 | 99 | 1033.3 |
| 20260502044937 | 13 | 50 | 0.0 | 0.0 | 0.00 | 0.08 | 0.08 | 99 | 1033.3 |
| 20260502044433 | 13 | 50 | 0.0 | 0.0 | 0.00 | 0.08 | 0.08 | 99 | 1033.4 |
| 20260502043930 | 13 | 50 | 0.0 | 0.0 | 0.00 | 0.08 | 0.08 | 99 | 1033.3 |
| 20260502043428 | 13 | 50 | 0.0 | 0.0 | 0.00 | 0.08 | 0.08 | 99 | 1033.0 |
| 20260502042927 | 13 | 50 | 0.0 | 0.0 | 0.00 | 0.08 | 0.08 | 99 | 1033.1 |
| 20260502042424 | 13 | 50 | 0.0 | 0.0 | 0.00 | 0.08 | 0.08 | 99 | 1033.0 |
| 20260502041921 | 13 | 50 | 0.0 | 0.0 | 0.00 | 0.08 | 0.08 | 99 | 1033.0 |
| 20260502041420 | 13 | 50 | 0.0 | 0.0 | 0.00 | 0.08 | 0.08 | 99 | 1032.9 |
| 20260502040916 | 13 | 50 | 0.0 | 0.0 | 0.00 | 0.08 | 0.08 | 99 | 1033.0 |
| 20260502040413 | 13 | 50 | 0.0 | 0.0 | 0.00 | 0.08 | 0.08 | 99 | 1033.0 |
| 20260502035909 | 13 | 50 | 0.0 | 0.0 | 0.00 | 0.08 | 0.08 | 99 | 1032.8 |
| 20260502035405 | 13 | 50 | 0.0 | 0.0 | 0.00 | 0.08 | 0.08 | 99 | 1032.7 |
| 20260502034903 | 13 | 50 | 0.0 | 0.0 | 0.00 | 0.08 | 0.08 | 99 | 1032.8 |
| 20260502034402 | 13 | 50 | 0.0 | 0.0 | 0.00 | 0.08 | 0.08 | 99 | 1032.8 |
| 20260502033900 | 13 | 50 | 0.0 | 0.0 | 0.00 | 0.08 | 0.08 | 99 | 1032.7 |
| 20260502033357 | 13 | 50 | 0.0 | 0.0 | 0.00 | 0.08 | 0.08 | 99 | 1032.9 |
| 20260502032853 | 13 | 50 | 0.0 | 0.0 | 0.00 | 0.08 | 0.08 | 99 | 1033.1 |
| 20260502032349 | 13 | 50 | 0.0 | 0.0 | 0.00 | 0.08 | 0.08 | 99 | 1033.1 |
| 20260502031847 | 13 | 51 | 0.0 | 0.0 | 0.00 | 0.08 | 0.08 | 99 | 1033.4 |
| 20260502031345 | 13 | 51 | 0.0 | 0.0 | 0.00 | 0.08 | 0.08 | 99 | 1033.4 |
| 20260502030843 | 13 | 51 | 0.0 | 0.0 | 0.00 | 0.08 | 0.08 | 99 | 1033.5 |
| 20260502030341 | 13 | 52 | 0.0 | 0.0 | 0.00 | 0.08 | 0.08 | 99 | 1033.7 |
| 20260502025838 | 13 | 52 | 0.0 | 0.0 | 0.00 | 0.08 | 0.08 | 99 | 1033.6 |
| 20260502025336 | 13 | 52 | 0.0 | 0.0 | 0.00 | 0.08 | 0.08 | 99 | 1033.6 |
| 20260502024834 | 13 | 82 | 0.0 | 0.0 | 0.00 | 0.08 | 0.08 | 99 | 1033.5 |
| 20260502024331 | 13 | 33 | 0.0 | 0.0 | 0.00 | 0.08 | 0.08 | 99 | 1033.5 |
| 20260502023829 | 13 | 8 | 0.0 | 0.0 | 0.00 | 0.08 | 0.08 | 98 | 1033.5 |
| 20260502023327 | 13 | 8 | 0.0 | 0.0 | 0.00 | 0.08 | 0.08 | 98 | 1033.3 |
| 20260502022824 | 13 | 8 | 0.0 | 0.0 | 0.00 | 0.08 | 0.08 | 98 | 1033.4 |
| 20260502022320 | 13 | 9 | 0.0 | 0.0 | 0.00 | 0.08 | 0.08 | 98 | 1034.0 |
| 20260502021817 | 13 | 10 | 0.0 | 0.0 | 0.00 | 0.08 | 0.08 | 97 | 1033.9 |
| 20260502021315 | 13 | 10 | 0.0 | 0.0 | 0.00 | 0.08 | 0.08 | 97 | 1034.0 |
| 20260502020812 | 13 | 10 | 0.0 | 0.0 | 0.00 | 0.08 | 0.08 | 96 | 1033.9 |
| 20260502020309 | 13 | 9 | 0.0 | 0.0 | 0.00 | 0.08 | 0.08 | 96 | 1034.0 |
| 20260502015806 | 13 | 9 | 0.0 | 0.0 | 0.00 | 0.08 | 0.08 | 95 | 1033.9 |
| 20260502015305 | 13 | 10 | 0.0 | 0.0 | 0.00 | 0.08 | 0.08 | 94 | 1034.0 |
| 20260502014800 | 13 | 10 | 0.0 | 0.0 | 0.18 | 0.08 | 0.08 | 93 | 1033.9 |
| 20260502014257 | 13 | 10 | 0.0 | 0.0 | 0.18 | 0.08 | 0.08 | 93 | 1034.0 |
| 20260502013753 | 13 | 10 | 0.0 | 0.0 | 0.00 | 0.05 | 0.05 | 92 | 1033.8 |
| 20260502013249 | 13 | 9 | 0.0 | 0.0 | 0.13 | 0.05 | 0.05 | 91 | 1033.8 |
| 20260502012746 | 13 | 10 | 0.0 | 0.0 | 0.13 | 0.05 | 0.05 | 90 | 1033.9 |
| 20260502012244 | 13 | 9 | 0.0 | 0.0 | 0.18 | 0.03 | 0.03 | 90 | 1033.6 |
| 20260502011741 | 13 | 10 | 0.0 | 0.0 | 0.18 | 0.03 | 0.03 | 89 | 1033.5 |
| 20260502011236 | 13 | 10 | 0.0 | 0.0 | 0.00 | 0.00 | 0.00 | 89 | 1033.5 |
| 20260502010734 | 14 | 10 | 0.0 | 0.0 | 0.00 | 0.00 | 0.00 | 88 | 1033.3 |
| 20260502010230 | 14 | 10 | 0.0 | 0.0 | 0.00 | 0.00 | 0.00 | 87 | 1033.4 |
| 20260502005728 | 14 | 10 | 0.0 | 0.0 | 0.00 | 0.00 | 0.00 | 87 | 1033.2 |
| 20260502005226 | 14 | 10 | 0.0 | 0.0 | 0.00 | 0.00 | 0.00 | 86 | 1032.9 |
| 20260502004722 | 13 | 10 | 0.0 | 0.0 | 0.00 | 0.00 | 0.00 | 85 | 1033.0 |
| 20260502004218 | 13 | 10 | 0.0 | 0.0 | 0.00 | 0.00 | 0.00 | 86 | 1032.9 |
| 20260502003716 | 14 | 10 | 0.0 | 0.0 | 0.00 | 0.00 | 0.00 | 87 | 1032.8 |
| 20260502003213 | 14 | 10 | 0.0 | 0.0 | 0.00 | 0.00 | 0.00 | 86 | 1033.2 |
| 20260502002708 | 14 | 10 | 0.0 | 0.0 | 0.00 | 0.00 | 0.00 | 85 | 1033.1 |
| 20260502002207 | 14 | 10 | 0.0 | 0.0 | 0.00 | 0.00 | 0.00 | 83 | 1032.9 |
| 20260502001704 | 14 | 10 | 0.0 | 0.0 | 0.00 | 0.00 | 0.00 | 83 | 1032.9 |
| 20260502001202 | 14 | 10 | 0.0 | 0.0 | 0.00 | 0.00 | 0.00 | 83 | 1033.1 |
| 20260502000659 | 14 | 10 | 0.0 | 0.0 | 0.00 | 0.00 | 0.00 | 83 | 1032.9 |
| 20260502000157 | 14 | 10 | 0.0 | 0.0 | 0.00 | 0.00 | 0.00 | 82 | 1032.8 |
| 20260501235652 | 15 | 10 | 0.0 | 0.0 | 0.00 | 0.00 | 0.00 | 83 | 1032.6 |
| 20260501235148 | 15 | 10 | 0.0 | 0.0 | 0.00 | 0.00 | 0.00 | 83 | 1032.6 |
| 20260501234644 | 15 | 10 | 0.0 | 0.0 | 0.00 | 0.00 | 0.00 | 83 | 1032.5 |
| 20260501234141 | 15 | 10 | 0.0 | 0.0 | 0.00 | 0.00 | 0.00 | 83 | 1032.6 |
| 20260501233639 | 15 | 10 | 0.0 | 0.0 | 0.00 | 0.00 | 0.00 | 84 | 1032.6 |
| 20260501233136 | 15 | 10 | 0.0 | 0.0 | 0.00 | 0.00 | 0.00 | 84 | 1032.7 |
| 20260501232632 | 15 | 10 | 0.0 | 0.0 | 0.00 | 0.00 | 0.00 | 83 | 1032.5 |
| 20260501232130 | 15 | 9 | 0.0 | 0.0 | 0.00 | 0.00 | 0.00 | 81 | 1032.5 |
| 20260501231627 | 15 | 10 | 0.0 | 0.0 | 0.00 | 0.00 | 0.00 | 79 | 1032.5 |
| 20260501231125 | 15 | 10 | 0.0 | 0.0 | 0.00 | 0.00 | 0.00 | 79 | 1032.5 |
| 20260501230624 | 15 | 10 | 0.0 | 0.0 | 0.00 | 0.00 | 0.00 | 78 | 1032.5 |
| 20260501230122 | 16 | 10 | 0.0 | 0.0 | 0.00 | 0.00 | 0.00 | 80 | 1032.5 |
| 20260501225619 | 16 | 10 | 0.0 | 0.0 | 0.00 | 0.00 | 0.00 | 76 | 1032.6 |
| 20260501225115 | 16 | 10 | 0.0 | 0.0 | 0.00 | 0.00 | 0.00 | 77 | 1032.4 |